Location: Peebles
(55.6412°N, 3.1714°W)
Time: 21:14:11
(UTC+01:00)

deb Kosmos-2123 - Pass Details

Date: 05 July 2022
Orbit: 942 x 985 km, 82.9° (Epoch: 17 August)

Event Time Altitude Azimuth Distance (km) Brightness Sun altitude
Exits shadow 01:27:21 15° 174° (S) 2,410 ? -11.5°
Maximum altitude 01:32:39 66° 95° (E) 1,070 ? -11.5°
Drops below altitude 10° 01:38:52 10° 15° (NNE) 2,738 ? -11.4°
Sets 01:41:24 0° 13° (NNE) 3,684 ? -11.4°
